Regional Weather Roundup
Issued by NWS Portland, ME

Home | Current Version | Previous Version | Text Only | Print | Product List | Glossary On
Versions: 1 2 3 4 5 6 7 8 9 10 11 12 13 14 15 16 17 18 19 20 21 22 23 24 25 26 27 28 29 30 31 32 33 34 35 36 37 38 39 40 41 42 43 44 45 46 47 48 49 50
000
ASUS41 KGYX 091810
RWRGYX
WEATHER ROUNDUP FOR MAINE AND NEW HAMPSHIRE
NATIONAL WEATHER SERVICE GRAY ME
100 PM EST FRI DEC 09 2016

MEZ002-005-006-010-012-015-018-020-021-024-026-027-029-091900-
MAINE

CITY           SKY/WX    TMP DP  RH WIND       PRES   REMARKS
PORTLAND       MOSUNNY   33   9  36 NW15G23   29.89S
6HR MIN TEMP:  27; 6HR MAX TEMP:  33;

SANFORD        MOSUNNY   30  13  49 NW21G29   29.91S WCI  17
BAR HARBOR     CLOUDY    30  14  51 NW16G22   29.79S WCI  19
WISCASSET      CLOUDY    33  11  39 W10G17    29.87R
6HR MIN TEMP:  29; 6HR MAX TEMP:  34;

ROCKLAND       PTSUNNY   31  14  49 NW15G29   29.82R
FRYEBURG       MOSUNNY   28   9  44 NW10G24   29.89S WCI  19
6HR MIN TEMP:  27; 6HR MAX TEMP:  29;

LEWISTONAUBURN PTSUNNY   29  12  49 W15G26    29.87S WCI  18
AUGUSTA        CLOUDY    27   9  46 NW16G24   29.84S WCI  15
6HR MIN TEMP:  26; 6HR MAX TEMP:  29;

WATERVILLE     CLOUDY    28  12  51 NW12G22   29.81R WCI  18
BANGOR         PTSUNNY   28  11  48 NW13G22   29.79S WCI  17
6HR MIN TEMP:  24; 6HR MAX TEMP:  29; 6HR PCP: TRACE;

GREENVILLE       N/A     19   9  65 NW12G31   29.70R WCI   7
6HR MIN TEMP:  18; 6HR MAX TEMP:  23;

MILLINOCKET    PTSUNNY   25   9  50 W14G29    29.76R WCI  13
6HR MIN TEMP:  24; 6HR MAX TEMP:  26;

HOULTON        CLOUDY    24  16  71 W9G18     29.68R
6HR MIN TEMP:  20; 6HR MAX TEMP:  26; 6HR PCP: TRACE;

PRESQUE ISLE   FLURRIES  27  19  72 W12       29.68R WCI  17
6HR MIN TEMP:  20; 6HR MAX TEMP:  27; 6HR PCP: TRACE;

FRENCHVILLE    CLOUDY    22  12  65 NW21G28   29.63R WCI   6
6HR MIN TEMP:  20; 6HR MAX TEMP:  23; 6HR PCP: TRACE;

CARIBOU        CLOUDY    25  14  63 NW14G23   29.65R WCI  13
6HR MIN TEMP:  20; 6HR MAX TEMP:  26; 6HR PCP: TRACE;

$$

NHZ002-005-008-009-011-012-014-091900-
NEW HAMPSHIRE

CITY           SKY/WX    TMP DP  RH WIND       PRES   REMARKS
PORTSMOUTH     MOSUNNY   32   9  37 NW17G32   29.90F
ROCHESTER      MOSUNNY   30  10  43 NW13G36   29.91S WCI  20
6HR MIN TEMP:  28; 6HR MAX TEMP:  31;

NASHUA         SUNNY     32   9  38 W18       29.96
MANCHESTER     PTSUNNY   33   8  35 W14G23    29.93F
6HR MIN TEMP:  30; 6HR MAX TEMP:  33;

CONCORD        PTSUNNY   33  11  39 W16G26    29.94S
6HR MIN TEMP:  29; 6HR MAX TEMP:  33;

LACONIA        CLOUDY    27  11  51 W15G26    29.93S WCI  15
PLYMOUTH       LGT SNOW  27  13  56 NW20G25   29.94R WCI  13
BERLIN         CLOUDY    23  10  57 NW12G18   29.86R WCI  12
6HR MIN TEMP:  22; 6HR MAX TEMP:  24; 6HR PCP:  0.01;

WHITEFIELD     CLOUDY    23  10  57 W12G21    29.89S WCI  12
6HR MIN TEMP:  22; 6HR MAX TEMP:  23; 6HR PCP: TRACE;

JAFFREY        SUNNY     29   9  43 NW13G28   29.91F WCI  19
6HR MIN TEMP:  26; 6HR MAX TEMP:  29;

KEENE          PTSUNNY   31  13  47 NW10G21   29.97S
LEBANON        PTSUNNY   28  10  46 NW16G31   29.95F WCI  16
6HR MIN TEMP:  25; 6HR MAX TEMP:  29;

MT WASHINGTON  NOT AVBL
$$

VTZ005-007-008-091900-
VERMONT

CITY           SKY/WX    TMP DP  RH WIND       PRES   REMARKS
ST JOHNSBURY     N/A     25  13  60 MISG      29.93R
MONTPELIER     LGT SNOW  20  14  77 W12G22    29.98R WCI   8
BURLINGTON     FLURRIES  25  13  60 NW16      30.03R WCI  12
$$

MAZ007-012-024-CTZ003-RIZ002-NYZ038-NYZ072-091900-
SOUTHERN NEW ENGLAND AND NY

CITY           SKY/WX    TMP DP  RH WIND       PRES   REMARKS
BOSTON         MOSUNNY   36  12  37 W18G25    29.95S
WORCESTER      PTSUNNY   30  10  43 W24G32    29.92S WCI  16
NANTUCKET      SUNNY     38  17  42 NW18G24   29.94F
PROVIDENCE     MOSUNNY   37  13  37 W21G31    29.98F
HARTFORD       PTSUNNY   34  12  40 NW24G32   30.02F
ALBANY         PTSUNNY   30  11  45 W23G31    30.08R WCI  17
NEW YORK CITY  MOSUNNY   41  17  38 NW25G32   30.08F
$$

ANZ081-ANZ082-ANZ150-NHZ014-MEZ023>029-091900-
COASTAL MARINE OBSERVATIONS

STATION/POSITION TIME  TEMP    WIND        PRES    WAVE
                       AIR SEA DIR/SP/G            HT/PER
                 (UTC) (F)     (DEG/KT/KT) (MB)    (FT/S)
MOUNT DESERT ROC 1800   32                 1008.5R
MATINICUS ROCK   1800   31     300/ 24/ 30 1009.2R
ISLE OF SHOALS   1800   32     280/ 29/ 34 1012.0F
JEFFREYS LEDGE   1708      51                N/A     6/ 6
CASHES LEDGE BUO 1650   34 50  270/ 23/ 29 1010.4    6/ 6
GEORGES BANK BUO 1650   43 50              1009.2   11/ 8
$$

.............KEY..............
   WCI - WIND CHILL
   TC  - TEMPERATURE IN CELSIUS
   VSB - VISIBILITY IN MILES
   HX  - HEAT INDEX
   FAIR- INDICATES FEW OR NO CLOUDS BELOW 12,000 FT, WITH NO
         SIGNIFICANT WEATHER AND/OR OBSTRUCTIONS TO VISIBILITY.






USA.gov is the U.S. government's official web portal to all federal, state and local government web resources and services.